Location: Peterborough
(44.3091°N, 78.3197°W)
Time: 00:22:34
(UTC-04:00)

S-56A Canister/Altair - Pass Details

Date: 27 March 2023
Orbit: 639 x 2492 km, 38.9° (Epoch: 02 June)

Event Time Altitude Azimuth Distance (km) Brightness Sun altitude
Rises 20:46:56 0° 251° (WSW) 4,969 12.6 -13.6°
Reaches altitude 10° 20:49:51 10° 249° (WSW) 4,195 12.0 -14.1°
Maximum altitude 21:01:43 68° 170° (S) 2,423 9.8 -16.1°
Enters shadow 21:13:23 20° 95° (E) 4,376 10.8 -18.0°
